date,time,SUV Intensity [MED/Hr],UV Index,Daily total [MED],Since Last [MED]
09/07/2023,23:58:45,0.001,0.0,10.387,10.387
09/07/2023,23:59:46,0.002,0.0,10.387,0.0
10/07/2023,00:00:45,-0.000,0.0,0.0,-10.387
10/07/2023,00:01:46,0.000,0.0,0.0,0.0
10/07/2023,00:02:45,0.000,0.0,0.0,0.0
10/07/2023,00:03:46,0.001,0.0,0.0,0.0
10/07/2023,00:04:45,0.000,0.0,0.0,0.0
10/07/2023,00:05:46,0.001,0.0,0.0,0.0
10/07/2023,00:06:45,0.000,0.0,0.0,0.0
10/07/2023,00:07:46,0.000,0.0,0.0,0.0
10/07/2023,00:08:45,-0.000,0.0,0.0,0.0
10/07/2023,00:09:45,0.000,0.0,0.0,0.0
10/07/2023,00:10:46,0.000,0.0,0.0,0.0
10/07/2023,00:11:43,0.000,0.0,0.0,0.0
10/07/2023,00:12:46,0.000,0.0,0.0,0.0
10/07/2023,00:13:45,0.000,0.0,0.0,0.0
10/07/2023,00:14:46,-0.001,0.0,0.0,0.0
10/07/2023,00:15:46,0.000,0.0,0.0,0.0
10/07/2023,00:16:45,0.001,0.0,0.0,0.0
10/07/2023,00:17:46,0.000,0.0,0.0,0.0
10/07/2023,00:18:45,0.000,0.0,0.0,0.0
10/07/2023,00:19:45,0.000,0.0,0.0,0.0
10/07/2023,00:20:46,0.000,0.0,0.0,0.0
10/07/2023,00:21:45,-0.000,0.0,0.0,0.0
10/07/2023,00:22:46,0.000,0.0,0.0,0.0
10/07/2023,00:23:45,0.000,0.0,0.0,0.0
10/07/2023,00:24:46,0.000,0.0,0.0,0.0
10/07/2023,00:25:46,0.000,0.0,0.0,0.0
10/07/2023,00:26:46,0.000,0.0,0.0,0.0
10/07/2023,00:27:45,0.000,0.0,0.0,0.0
10/07/2023,00:28:45,-0.000,0.0,0.0,0.0
10/07/2023,00:29:45,0.000,0.0,0.0,0.0
10/07/2023,00:30:46,0.000,0.0,0.0,0.0
10/07/2023,00:31:46,0.000,0.0,0.0,0.0
10/07/2023,00:32:45,-0.000,0.0,0.0,0.0
10/07/2023,00:33:46,0.000,0.0,0.0,0.0
10/07/2023,00:34:45,0.001,0.0,0.0,0.0
10/07/2023,00:35:45,-0.000,0.0,0.0,0.0
10/07/2023,00:36:45,0.000,0.0,0.0,0.0
10/07/2023,00:37:46,0.001,0.0,0.0,0.0
10/07/2023,00:38:45,0.002,0.0,0.0,0.0
10/07/2023,00:39:45,0.000,0.0,0.0,0.0
10/07/2023,00:40:45,-0.000,0.0,0.0,0.0
10/07/2023,00:41:45,0.001,0.0,0.0,0.0
10/07/2023,00:42:46,0.000,0.0,0.0,0.0
10/07/2023,00:43:45,0.000,0.0,0.0,0.0
10/07/2023,00:44:46,0.000,0.0,0.0,0.0
10/07/2023,00:45:46,0.001,0.0,0.0,0.0
10/07/2023,00:46:45,0.000,0.0,0.0,0.0
10/07/2023,00:47:46,0.000,0.0,0.0,0.0
10/07/2023,00:48:46,0.000,0.0,0.0,0.0
10/07/2023,00:49:45,0.001,0.0,0.0,0.0
10/07/2023,00:50:46,0.001,0.0,0.0,0.0
10/07/2023,00:51:45,-0.000,0.0,0.0,0.0
10/07/2023,00:52:45,0.001,0.0,0.0,0.0
10/07/2023,00:53:45,0.000,0.0,0.0,0.0
10/07/2023,00:54:46,-0.000,0.0,0.0,0.0
10/07/2023,00:55:46,0.001,0.0,0.0,0.0
10/07/2023,00:56:45,0.000,0.0,0.0,0.0
10/07/2023,00:57:45,0.000,0.0,0.0,0.0
10/07/2023,00:58:45,0.000,0.0,0.0,0.0
10/07/2023,00:59:46,0.001,0.0,0.0,0.0
10/07/2023,01:00:45,0.001,0.0,0.0,0.0
10/07/2023,01:01:46,-0.000,0.0,0.0,0.0
10/07/2023,01:02:45,0.000,0.0,0.0,0.0
10/07/2023,01:03:45,0.000,0.0,0.0,0.0
10/07/2023,01:04:46,0.000,0.0,0.0,0.0
10/07/2023,01:05:45,0.001,0.0,0.0,0.0
10/07/2023,01:06:46,0.001,0.0,0.0,0.0
10/07/2023,01:07:46,0.000,0.0,0.0,0.0
10/07/2023,01:08:45,0.000,0.0,0.0,0.0
10/07/2023,01:09:46,0.000,0.0,0.0,0.0
10/07/2023,01:10:46,0.000,0.0,0.0,0.0
10/07/2023,01:11:46,0.001,0.0,0.0,0.0
10/07/2023,01:12:46,-0.000,0.0,0.0,0.0
10/07/2023,01:13:45,0.000,0.0,0.0,0.0
10/07/2023,01:14:46,0.000,0.0,0.0,0.0
10/07/2023,01:15:45,-0.000,0.0,0.0,0.0
10/07/2023,01:16:46,-0.000,0.0,0.0,0.0
10/07/2023,01:17:46,0.000,0.0,0.0,0.0
10/07/2023,01:18:46,0.000,0.0,0.0,0.0
10/07/2023,01:19:45,0.000,0.0,0.0,0.0
10/07/2023,01:20:45,0.000,0.0,0.0,0.0
10/07/2023,01:21:46,0.000,0.0,0.0,0.0
10/07/2023,01:22:46,0.000,0.0,0.0,0.0
10/07/2023,01:23:46,0.000,0.0,0.0,0.0
10/07/2023,01:24:45,0.000,0.0,0.0,0.0
10/07/2023,01:25:46,0.000,0.0,0.0,0.0
10/07/2023,01:26:45,0.000,0.0,0.0,0.0
10/07/2023,01:27:46,-0.000,0.0,0.0,0.0
10/07/2023,01:28:45,0.000,0.0,0.0,0.0
10/07/2023,01:29:45,-0.000,0.0,0.0,0.0
10/07/2023,01:30:46,0.001,0.0,0.0,0.0
10/07/2023,01:31:45,-0.000,0.0,0.0,0.0
10/07/2023,01:32:46,0.000,0.0,0.0,0.0
10/07/2023,01:33:45,0.001,0.0,0.0,0.0
10/07/2023,01:34:46,0.000,0.0,0.0,0.0
10/07/2023,01:35:46,0.002,0.0,0.0,0.0
10/07/2023,01:36:45,0.001,0.0,0.0,0.0
10/07/2023,01:37:46,0.000,0.0,0.0,0.0
10/07/2023,01:38:46,0.001,0.0,0.0,0.0
10/07/2023,01:39:45,0.001,0.0,0.0,0.0
10/07/2023,01:40:46,0.001,0.0,0.0,0.0
10/07/2023,01:41:45,0.001,0.0,0.0,0.0
10/07/2023,01:42:46,0.001,0.0,0.0,0.0
10/07/2023,01:43:45,0.001,0.0,0.0,0.0
10/07/2023,01:44:46,0.000,0.0,0.0,0.0
10/07/2023,01:45:45,0.001,0.0,0.0,0.0
10/07/2023,01:46:46,0.001,0.0,0.0,0.0
10/07/2023,01:47:45,0.000,0.0,0.0,0.0
10/07/2023,01:48:46,-0.000,0.0,0.0,0.0
10/07/2023,01:49:45,0.000,0.0,0.0,0.0
10/07/2023,01:50:46,0.001,0.0,0.0,0.0
10/07/2023,01:51:45,0.001,0.0,0.0,0.0
10/07/2023,01:52:46,0.001,0.0,0.0,0.0
10/07/2023,01:53:45,0.001,0.0,0.0,0.0
10/07/2023,01:54:45,0.002,0.0,0.0,0.0
10/07/2023,01:55:45,0.001,0.0,0.0,0.0
10/07/2023,01:56:46,0.001,0.0,0.0,0.0
10/07/2023,01:57:46,-0.000,0.0,0.0,0.0
10/07/2023,01:58:45,0.001,0.0,0.0,0.0
10/07/2023,01:59:46,0.001,0.0,0.0,0.0
10/07/2023,02:00:46,0.000,0.0,0.0,0.0
10/07/2023,02:01:46,0.001,0.0,0.0,0.0
10/07/2023,02:02:46,0.001,0.0,0.0,0.0
10/07/2023,02:03:46,-0.000,0.0,0.0,0.0
10/07/2023,02:04:46,0.001,0.0,0.0,0.0
10/07/2023,02:05:45,0.001,0.0,0.0,0.0
10/07/2023,02:06:46,0.001,0.0,0.0,0.0
10/07/2023,02:07:46,0.001,0.0,0.0,0.0
10/07/2023,02:08:45,0.001,0.0,0.0,0.0
10/07/2023,02:09:46,0.000,0.0,0.0,0.0
10/07/2023,02:10:45,0.001,0.0,0.0,0.0
10/07/2023,02:11:46,0.001,0.0,0.0,0.0
10/07/2023,02:12:46,0.001,0.0,0.0,0.0
10/07/2023,02:13:45,0.000,0.0,0.0,0.0
10/07/2023,02:14:46,0.001,0.0,0.0,0.0
10/07/2023,02:15:45,0.001,0.0,0.0,0.0
10/07/2023,02:16:45,0.001,0.0,0.0,0.0
10/07/2023,02:17:46,0.000,0.0,0.0,0.0
10/07/2023,02:18:45,0.001,0.0,0.0,0.0
10/07/2023,02:19:47,0.000,0.0,0.0,0.0
10/07/2023,02:20:44,0.001,0.0,0.0,0.0
10/07/2023,02:21:46,0.001,0.0,0.0,0.0
10/07/2023,02:22:46,0.000,0.0,0.0,0.0
10/07/2023,02:23:46,0.001,0.0,0.0,0.0
10/07/2023,02:24:46,0.000,0.0,0.0,0.0
10/07/2023,02:25:46,0.002,0.0,0.0,0.0
10/07/2023,02:26:45,0.000,0.0,0.0,0.0
10/07/2023,02:27:46,0.001,0.0,0.0,0.0
10/07/2023,02:28:45,0.001,0.0,0.0,0.0
10/07/2023,02:29:45,0.002,0.0,0.0,0.0
10/07/2023,02:30:46,0.001,0.0,0.0,0.0
10/07/2023,02:31:45,0.001,0.0,0.0,0.0
10/07/2023,02:32:46,0.001,0.0,0.0,0.0
10/07/2023,02:33:45,0.000,0.0,0.0,0.0
10/07/2023,02:34:46,0.000,0.0,0.0,0.0
10/07/2023,02:35:46,0.001,0.0,0.0,0.0
10/07/2023,02:36:46,0.001,0.0,0.0,0.0
10/07/2023,02:37:45,0.001,0.0,0.0,0.0
10/07/2023,02:38:46,0.001,0.0,0.0,0.0
10/07/2023,02:39:46,0.001,0.0,0.0,0.0
10/07/2023,02:40:46,0.000,0.0,0.0,0.0
10/07/2023,02:41:46,0.001,0.0,0.0,0.0
10/07/2023,02:42:46,0.001,0.0,0.0,0.0
10/07/2023,02:43:46,0.001,0.0,0.0,0.0
10/07/2023,02:44:46,0.001,0.0,0.0,0.0
10/07/2023,02:45:46,0.001,0.0,0.0,0.0
10/07/2023,02:46:45,0.001,0.0,0.0,0.0
10/07/2023,02:47:46,0.001,0.0,0.0,0.0
10/07/2023,02:48:46,0.001,0.0,0.0,0.0
10/07/2023,02:49:49,0.001,0.0,0.0,0.0
10/07/2023,02:50:45,0.002,0.0,0.0,0.0
10/07/2023,02:51:46,0.001,0.0,0.0,0.0
10/07/2023,02:52:46,0.001,0.0,0.0,0.0
10/07/2023,02:53:45,0.001,0.0,0.0,0.0
10/07/2023,02:54:46,0.001,0.0,0.0,0.0
10/07/2023,02:55:46,0.001,0.0,0.0,0.0
10/07/2023,02:56:45,0.002,0.0,0.0,0.0
10/07/2023,02:57:46,0.001,0.0,0.0,0.0
10/07/2023,02:58:45,0.001,0.0,0.0,0.0
10/07/2023,02:59:46,0.001,0.0,0.0,0.0
10/07/2023,03:00:46,0.000,0.0,0.0,0.0
10/07/2023,03:01:46,0.001,0.0,0.0,0.0
10/07/2023,03:02:46,0.001,0.0,0.0,0.0
10/07/2023,03:03:46,0.002,0.0,0.0,0.0
10/07/2023,03:04:46,0.000,0.0,0.0,0.0
10/07/2023,03:05:46,0.001,0.0,0.0,0.0
10/07/2023,03:06:45,0.001,0.0,0.0,0.0
10/07/2023,03:07:46,0.001,0.0,0.0,0.0
10/07/2023,03:08:46,0.001,0.0,0.0,0.0
10/07/2023,03:09:45,0.001,0.0,0.0,0.0
10/07/2023,03:10:46,0.001,0.0,0.0,0.0
10/07/2023,03:11:46,0.001,0.0,0.0,0.0
10/07/2023,03:12:46,0.001,0.0,0.0,0.0
10/07/2023,03:13:45,0.001,0.0,0.0,0.0
10/07/2023,03:14:46,0.001,0.0,0.0,0.0
10/07/2023,03:15:46,0.001,0.0,0.0,0.0
10/07/2023,03:16:45,0.001,0.0,0.0,0.0
10/07/2023,03:17:46,0.000,0.0,0.0,0.0
10/07/2023,03:18:46,0.001,0.0,0.0,0.0
10/07/2023,03:19:46,0.001,0.0,0.0,0.0
10/07/2023,03:20:45,0.001,0.0,0.0,0.0
10/07/2023,03:21:47,0.001,0.0,0.0,0.0
10/07/2023,03:22:47,0.000,0.0,0.0,0.0
10/07/2023,03:23:46,0.001,0.0,0.0,0.0
10/07/2023,03:24:46,0.001,0.0,0.0,0.0
10/07/2023,03:25:46,0.001,0.0,0.0,0.0
10/07/2023,03:26:46,0.001,0.0,0.0,0.0
10/07/2023,03:27:46,0.001,0.0,0.0,0.0
10/07/2023,03:28:46,0.001,0.0,0.0,0.0
10/07/2023,03:29:45,0.001,0.0,0.0,0.0
10/07/2023,03:30:46,0.001,0.0,0.0,0.0
10/07/2023,03:31:45,0.001,0.0,0.0,0.0
10/07/2023,03:32:46,0.001,0.0,0.0,0.0
10/07/2023,03:33:46,0.002,0.0,0.0,0.0
10/07/2023,03:34:46,0.001,0.0,0.0,0.0
10/07/2023,03:35:46,0.001,0.0,0.0,0.0
10/07/2023,03:36:45,0.000,0.0,0.0,0.0
10/07/2023,03:37:46,0.001,0.0,0.0,0.0
10/07/2023,03:38:45,0.001,0.0,0.0,0.0
10/07/2023,03:39:46,0.002,0.0,0.0,0.0
10/07/2023,03:40:46,0.001,0.0,0.0,0.0
10/07/2023,03:41:46,0.001,0.0,0.0,0.0
10/07/2023,03:42:46,0.001,0.0,0.0,0.0
10/07/2023,03:43:46,0.002,0.0,0.0,0.0
10/07/2023,03:44:46,0.002,0.0,0.0,0.0
10/07/2023,03:45:46,0.002,0.0,0.0,0.0
10/07/2023,03:46:46,0.002,0.0,0.0,0.0
10/07/2023,03:47:46,0.001,0.0,0.0,0.0
10/07/2023,03:48:45,0.002,0.0,0.0,0.0
10/07/2023,03:49:46,0.003,0.0,0.0,0.0
10/07/2023,03:50:45,0.002,0.0,0.0,0.0
10/07/2023,03:51:46,0.002,0.0,0.0,0.0
10/07/2023,03:52:46,0.001,0.0,0.0,0.0
10/07/2023,03:53:46,0.002,0.0,0.0,0.0
10/07/2023,03:54:46,0.002,0.0,0.0,0.0
10/07/2023,03:55:46,0.003,0.0,0.0,0.0
10/07/2023,03:56:46,0.004,0.0,0.0,0.0
10/07/2023,03:57:46,0.004,0.0,0.0,0.0
10/07/2023,03:58:46,0.003,0.0,0.0,0.0
10/07/2023,03:59:46,0.003,0.0,0.0,0.0
10/07/2023,04:00:46,0.003,0.0,0.0,0.0
10/07/2023,04:01:46,0.003,0.0,0.0,0.0
10/07/2023,04:02:45,0.003,0.0,0.0,0.0
10/07/2023,04:03:46,0.004,0.0,0.0,0.0
10/07/2023,04:04:46,0.004,0.0,0.0,0.0
10/07/2023,04:05:45,0.004,0.0,0.0,0.0
10/07/2023,04:06:46,0.004,0.0,0.0,0.0
10/07/2023,04:07:46,0.004,0.0,0.0,0.0
10/07/2023,04:08:46,0.004,0.0,0.0,0.0
10/07/2023,04:09:45,0.004,0.0,0.0,0.0
10/07/2023,04:10:46,0.004,0.0,0.0,0.0
10/07/2023,04:11:46,0.005,0.0,0.0,0.0
10/07/2023,04:12:46,0.005,0.0,0.0,0.0
10/07/2023,04:13:46,0.006,0.0,0.0,0.0
10/07/2023,04:14:46,0.005,0.0,0.0,0.0
10/07/2023,04:15:46,0.006,0.0,0.0,0.0
10/07/2023,04:16:46,0.007,0.0,0.0,0.0
10/07/2023,04:17:46,0.007,0.0,0.0,0.0
10/07/2023,04:18:46,0.007,0.0,0.0,0.0
10/07/2023,04:19:46,0.008,0.0,0.001,0.001
10/07/2023,04:20:46,0.008,0.0,0.001,0.0
10/07/2023,04:21:46,0.008,0.0,0.001,0.0
10/07/2023,04:22:46,0.009,0.0,0.001,0.0
10/07/2023,04:23:45,0.008,0.0,0.001,0.0
10/07/2023,04:24:46,0.008,0.0,0.001,0.0
10/07/2023,04:25:46,0.009,0.0,0.001,0.0
10/07/2023,04:26:46,0.010,0.0,0.002,0.001
10/07/2023,04:27:46,0.011,0.0,0.002,0.0
10/07/2023,04:28:46,0.010,0.0,0.002,0.0
10/07/2023,04:29:45,0.011,0.0,0.002,0.0
10/07/2023,04:30:46,0.011,0.0,0.002,0.0
10/07/2023,04:31:45,0.012,0.0,0.002,0.0
10/07/2023,04:32:46,0.012,0.0,0.003,0.001
10/07/2023,04:33:46,0.013,0.0,0.003,0.0
10/07/2023,04:34:46,0.013,0.0,0.003,0.0
10/07/2023,04:35:46,0.014,0.0,0.003,0.0
10/07/2023,04:36:46,0.014,0.0,0.004,0.001
10/07/2023,04:37:46,0.014,0.0,0.004,0.0
10/07/2023,04:38:46,0.015,0.0,0.004,0.0
10/07/2023,04:39:46,0.016,0.0,0.004,0.0
10/07/2023,04:40:46,0.016,0.0,0.005,0.001
10/07/2023,04:41:45,0.016,0.0,0.005,0.0
10/07/2023,04:43:08,0.017,0.0,0.005,0.0
10/07/2023,04:44:46,0.018,0.0,0.006,0.001
10/07/2023,04:45:46,0.018,0.0,0.006,0.0
10/07/2023,04:46:45,0.020,0.0,0.006,0.0
10/07/2023,04:47:46,0.020,0.0,0.007,0.001
10/07/2023,04:48:46,0.021,0.0,0.007,0.0
10/07/2023,04:49:46,0.022,0.0,0.007,0.0
10/07/2023,04:50:46,0.022,0.0,0.008,0.001
10/07/2023,04:51:46,0.022,0.0,0.008,0.0
10/07/2023,04:52:46,0.023,0.0,0.008,0.0
10/07/2023,04:53:46,0.024,0.0,0.009,0.001
10/07/2023,04:54:46,0.025,0.0,0.009,0.0
10/07/2023,04:55:46,0.026,0.0,0.01,0.001
10/07/2023,04:56:45,0.026,0.0,0.01,0.0
10/07/2023,04:57:46,0.027,0.0,0.011,0.001
10/07/2023,04:58:46,0.028,0.0,0.011,0.0
10/07/2023,04:59:46,0.029,0.0,0.011,0.0
10/07/2023,05:00:46,0.029,0.0,0.012,0.001
10/07/2023,05:01:46,0.031,0.0,0.012,0.0
10/07/2023,05:02:46,0.032,0.0,0.013,0.001
10/07/2023,05:03:46,0.032,0.0,0.013,0.0
10/07/2023,05:04:46,0.033,0.0,0.014,0.001
10/07/2023,05:05:46,0.034,0.0,0.015,0.001
10/07/2023,05:06:46,0.036,0.0,0.015,0.0
10/07/2023,05:07:46,0.036,0.0,0.016,0.001
10/07/2023,05:08:46,0.037,0.0,0.016,0.0
10/07/2023,05:09:46,0.038,0.0,0.017,0.001
10/07/2023,05:10:46,0.039,0.0,0.018,0.001
10/07/2023,05:11:46,0.040,0.0,0.018,0.0
10/07/2023,05:12:46,0.041,0.0,0.019,0.001
10/07/2023,05:13:46,0.042,0.0,0.02,0.001
10/07/2023,05:14:46,0.043,0.0,0.02,0.0
10/07/2023,05:15:46,0.044,0.0,0.021,0.001
10/07/2023,05:16:46,0.045,0.0,0.022,0.001
10/07/2023,05:17:46,0.047,0.0,0.023,0.001
10/07/2023,05:18:46,0.047,0.0,0.023,0.0
10/07/2023,05:19:46,0.050,0.0,0.024,0.001
10/07/2023,05:20:46,0.050,0.0,0.025,0.001
10/07/2023,05:21:46,0.053,0.0,0.026,0.001
10/07/2023,05:22:46,0.053,0.0,0.027,0.001
10/07/2023,05:23:46,0.055,0.0,0.028,0.001
10/07/2023,05:24:46,0.056,0.0,0.029,0.001
10/07/2023,05:25:46,0.057,0.0,0.03,0.001
10/07/2023,05:26:46,0.060,0.0,0.03,0.0
10/07/2023,05:27:46,0.060,0.0,0.031,0.001
10/07/2023,05:28:45,0.062,0.0,0.032,0.001
10/07/2023,05:29:47,0.063,0.0,0.034,0.002
10/07/2023,05:30:46,0.065,0.0,0.035,0.001
10/07/2023,05:31:46,0.066,0.0,0.036,0.001
10/07/2023,05:32:46,0.067,0.0,0.037,0.001
10/07/2023,05:33:46,0.069,0.0,0.038,0.001
10/07/2023,05:34:46,0.071,0.0,0.039,0.001
10/07/2023,05:35:47,0.073,0.0,0.04,0.001
10/07/2023,05:36:47,0.074,0.0,0.041,0.001
10/07/2023,05:37:47,0.075,0.0,0.043,0.002
10/07/2023,05:38:46,0.077,0.0,0.044,0.001
10/07/2023,05:39:46,0.079,0.0,0.045,0.001
10/07/2023,05:40:46,0.080,0.0,0.047,0.002
10/07/2023,05:41:46,0.083,0.0,0.048,0.001
10/07/2023,05:42:45,0.085,0.0,0.049,0.001
10/07/2023,05:43:46,0.086,0.0,0.051,0.002
10/07/2023,05:44:46,0.089,0.0,0.052,0.001
10/07/2023,05:45:46,0.089,0.0,0.054,0.002
10/07/2023,05:46:46,0.092,0.0,0.055,0.001
10/07/2023,05:47:46,0.094,0.0,0.057,0.002
10/07/2023,05:48:46,0.097,0.0,0.058,0.001
10/07/2023,05:49:46,0.099,0.0,0.06,0.002
10/07/2023,05:50:46,0.101,0.0,0.062,0.002
10/07/2023,05:51:46,0.103,0.0,0.063,0.001
10/07/2023,05:52:46,0.105,0.0,0.065,0.002
10/07/2023,05:53:46,0.108,0.0,0.067,0.002
10/07/2023,05:54:46,0.109,0.0,0.069,0.002
10/07/2023,05:55:46,0.111,0.0,0.071,0.002
10/07/2023,05:56:46,0.112,0.0,0.072,0.001
10/07/2023,05:57:46,0.111,0.0,0.074,0.002
10/07/2023,05:58:46,0.113,0.0,0.076,0.002
10/07/2023,05:59:46,0.114,0.0,0.078,0.002
10/07/2023,06:00:46,0.118,0.0,0.08,0.002
10/07/2023,06:01:46,0.114,0.0,0.082,0.002
10/07/2023,06:02:46,0.113,0.0,0.084,0.002
10/07/2023,06:03:46,0.113,0.0,0.086,0.002
10/07/2023,06:04:46,0.116,0.0,0.088,0.002
10/07/2023,06:05:46,0.115,0.0,0.09,0.002
10/07/2023,06:06:46,0.121,0.0,0.092,0.002
10/07/2023,06:07:46,0.127,0.0,0.094,0.002
10/07/2023,06:08:46,0.130,0.0,0.096,0.002
10/07/2023,06:09:46,0.138,0.0,0.098,0.002
10/07/2023,06:10:46,0.132,0.0,0.1,0.002
10/07/2023,06:11:46,0.138,0.0,0.103,0.003
10/07/2023,06:12:46,0.139,0.0,0.105,0.002
10/07/2023,06:13:46,0.136,0.0,0.107,0.002
10/07/2023,06:14:46,0.139,0.0,0.109,0.002
10/07/2023,06:15:46,0.145,0.0,0.112,0.003
10/07/2023,06:16:46,0.160,0.0,0.114,0.002
10/07/2023,06:17:46,0.151,0.0,0.117,0.003
10/07/2023,06:18:46,0.154,0.0,0.12,0.003
10/07/2023,06:19:46,0.150,0.0,0.122,0.002
10/07/2023,06:20:46,0.157,0.0,0.125,0.003
10/07/2023,06:21:46,0.148,0.0,0.127,0.002
10/07/2023,06:22:46,0.150,0.0,0.13,0.003
10/07/2023,06:23:46,0.157,0.0,0.132,0.002
10/07/2023,06:24:46,0.167,0.0,0.135,0.003
10/07/2023,06:25:46,0.182,0.0,0.138,0.003
10/07/2023,06:26:46,0.175,0.0,0.141,0.003
10/07/2023,06:27:46,0.194,0.0,0.144,0.003
10/07/2023,06:28:46,0.171,0.0,0.147,0.003
10/07/2023,06:29:46,0.177,0.0,0.15,0.003
10/07/2023,06:30:46,0.185,0.0,0.153,0.003
10/07/2023,06:31:46,0.217,0.0,0.156,0.003
10/07/2023,06:32:46,0.221,1.0,0.16,0.004
10/07/2023,06:33:46,0.229,1.0,0.163,0.003
10/07/2023,06:34:46,0.213,0.0,0.167,0.004
10/07/2023,06:35:46,0.226,1.0,0.171,0.004
10/07/2023,06:36:47,0.265,1.0,0.175,0.004
10/07/2023,06:37:46,0.271,1.0,0.179,0.004
10/07/2023,06:38:46,0.281,1.0,0.184,0.005
10/07/2023,06:39:46,0.294,1.0,0.188,0.004
10/07/2023,06:40:46,0.295,1.0,0.193,0.005
10/07/2023,06:41:46,0.298,1.0,0.198,0.005
10/07/2023,06:42:47,0.295,1.0,0.203,0.005
10/07/2023,06:43:46,0.291,1.0,0.208,0.005
10/07/2023,06:44:46,0.262,1.0,0.213,0.005
10/07/2023,06:45:47,0.282,1.0,0.217,0.004
10/07/2023,06:46:46,0.249,1.0,0.221,0.004
10/07/2023,06:47:46,0.241,1.0,0.225,0.004
10/07/2023,06:48:46,0.238,1.0,0.229,0.004
10/07/2023,06:49:47,0.232,1.0,0.233,0.004
10/07/2023,06:50:46,0.230,1.0,0.237,0.004
10/07/2023,06:51:46,0.227,1.0,0.241,0.004
10/07/2023,06:52:47,0.221,1.0,0.245,0.004
10/07/2023,06:53:46,0.263,1.0,0.249,0.004
10/07/2023,06:54:46,0.276,1.0,0.253,0.004
10/07/2023,06:55:47,0.281,1.0,0.258,0.005
10/07/2023,06:56:46,0.345,1.0,0.263,0.005
10/07/2023,06:57:46,0.321,1.0,0.268,0.005
10/07/2023,06:58:46,0.292,1.0,0.273,0.005
10/07/2023,06:59:47,0.298,1.0,0.279,0.006
10/07/2023,07:00:46,0.297,1.0,0.284,0.005
10/07/2023,07:01:46,0.266,1.0,0.288,0.004
10/07/2023,07:02:46,0.282,1.0,0.293,0.005
10/07/2023,07:03:46,0.283,1.0,0.297,0.004
10/07/2023,07:04:46,0.287,1.0,0.302,0.005
10/07/2023,07:05:46,0.281,1.0,0.307,0.005
10/07/2023,07:06:46,0.278,1.0,0.312,0.005
10/07/2023,07:07:47,0.288,1.0,0.316,0.004
10/07/2023,07:08:46,0.287,1.0,0.321,0.005
10/07/2023,07:09:46,0.277,1.0,0.326,0.005
10/07/2023,07:10:46,0.282,1.0,0.33,0.004
10/07/2023,07:11:46,0.289,1.0,0.335,0.005
10/07/2023,07:12:46,0.298,1.0,0.34,0.005
10/07/2023,07:13:46,0.296,1.0,0.345,0.005
10/07/2023,07:14:46,0.328,1.0,0.35,0.005
10/07/2023,07:15:47,0.371,1.0,0.356,0.006
10/07/2023,07:16:46,0.290,1.0,0.361,0.005
10/07/2023,07:17:46,0.266,1.0,0.366,0.005
10/07/2023,07:18:46,0.251,1.0,0.37,0.004
10/07/2023,07:19:46,0.294,1.0,0.374,0.004
10/07/2023,07:20:47,0.285,1.0,0.379,0.005
10/07/2023,07:21:46,0.291,1.0,0.384,0.005
10/07/2023,07:22:46,0.296,1.0,0.389,0.005
10/07/2023,07:23:47,0.260,1.0,0.394,0.005
10/07/2023,07:24:47,0.247,1.0,0.398,0.004
10/07/2023,07:25:46,0.267,1.0,0.402,0.004
10/07/2023,07:26:46,0.269,1.0,0.407,0.005
10/07/2023,07:27:46,0.260,1.0,0.411,0.004
10/07/2023,07:28:46,0.348,1.0,0.416,0.005
10/07/2023,07:29:47,0.319,1.0,0.421,0.005
10/07/2023,07:30:46,0.370,1.0,0.427,0.006
10/07/2023,07:31:46,0.416,1.0,0.434,0.007
10/07/2023,07:32:46,0.490,1.0,0.441,0.007
10/07/2023,07:33:46,0.454,1.0,0.45,0.009
10/07/2023,07:34:46,0.430,1.0,0.457,0.007
10/07/2023,07:35:47,0.448,1.0,0.465,0.008
10/07/2023,07:36:46,0.400,1.0,0.472,0.007
10/07/2023,07:37:46,0.417,1.0,0.479,0.007
10/07/2023,07:38:46,0.386,1.0,0.485,0.006
10/07/2023,07:39:46,0.363,1.0,0.492,0.007
10/07/2023,07:40:47,0.325,1.0,0.498,0.006
10/07/2023,07:41:46,0.342,1.0,0.503,0.005
10/07/2023,07:42:46,0.301,1.0,0.509,0.006
10/07/2023,07:43:46,0.291,1.0,0.514,0.005
10/07/2023,07:44:46,0.335,1.0,0.519,0.005
10/07/2023,07:45:47,0.358,1.0,0.525,0.006
10/07/2023,07:46:46,0.356,1.0,0.531,0.006
10/07/2023,07:47:46,0.358,1.0,0.537,0.006
10/07/2023,07:48:46,0.368,1.0,0.543,0.006
10/07/2023,07:49:46,0.373,1.0,0.549,0.006
10/07/2023,07:50:46,0.398,1.0,0.555,0.006
10/07/2023,07:51:47,0.442,1.0,0.562,0.007
10/07/2023,07:52:46,0.457,1.0,0.57,0.008
10/07/2023,07:53:47,0.474,1.0,0.578,0.008
10/07/2023,07:54:46,0.709,2.0,0.587,0.009
10/07/2023,07:55:46,0.727,2.0,0.599,0.012
10/07/2023,07:56:46,0.735,2.0,0.611,0.012
10/07/2023,07:57:46,0.748,2.0,0.623,0.012
10/07/2023,07:58:46,0.772,2.0,0.636,0.013
10/07/2023,07:59:47,0.600,1.0,0.648,0.012
10/07/2023,08:00:46,0.789,2.0,0.661,0.013
10/07/2023,08:01:46,0.776,2.0,0.674,0.013
10/07/2023,08:02:47,0.788,2.0,0.687,0.013
10/07/2023,08:03:46,0.749,2.0,0.7,0.013
10/07/2023,08:04:46,0.676,2.0,0.711,0.011
10/07/2023,08:05:47,0.696,2.0,0.724,0.013
10/07/2023,08:06:46,0.699,2.0,0.734,0.01
10/07/2023,08:07:46,0.543,1.0,0.746,0.012
10/07/2023,08:08:47,0.810,2.0,0.755,0.009
10/07/2023,08:09:46,0.840,2.0,0.767,0.012
10/07/2023,08:10:46,0.836,2.0,0.78,0.013
10/07/2023,08:11:47,0.553,1.0,0.79,0.01
10/07/2023,08:12:46,0.506,1.0,0.8,0.01
10/07/2023,08:13:46,0.639,1.0,0.809,0.009
10/07/2023,08:14:47,0.540,1.0,0.819,0.01
10/07/2023,08:15:46,0.555,1.0,0.828,0.009
10/07/2023,08:16:46,0.619,1.0,0.838,0.01
10/07/2023,08:17:46,0.635,1.0,0.848,0.01
10/07/2023,08:18:47,0.625,1.0,0.858,0.01
10/07/2023,08:19:47,0.633,1.0,0.869,0.011
10/07/2023,08:20:47,0.605,1.0,0.879,0.01
10/07/2023,08:21:46,0.608,1.0,0.889,0.01
10/07/2023,08:22:47,0.592,1.0,0.899,0.01
10/07/2023,08:23:46,0.584,1.0,0.909,0.01
10/07/2023,08:24:46,0.633,1.0,0.919,0.01
10/07/2023,08:25:46,0.613,1.0,0.93,0.011
10/07/2023,08:26:46,0.615,1.0,0.94,0.01
10/07/2023,08:27:46,0.617,1.0,0.95,0.01
10/07/2023,08:28:46,0.604,1.0,0.96,0.01
10/07/2023,08:29:46,0.579,1.0,0.97,0.01
10/07/2023,08:30:46,0.546,1.0,0.98,0.01
10/07/2023,08:31:46,0.524,1.0,0.989,0.009
10/07/2023,08:32:46,0.517,1.0,0.997,0.008
10/07/2023,08:33:47,0.520,1.0,1.006,0.009
10/07/2023,08:34:46,0.514,1.0,1.014,0.008
10/07/2023,08:35:46,0.490,1.0,1.023,0.009
10/07/2023,08:36:46,0.463,1.0,1.031,0.008
10/07/2023,08:37:46,0.452,1.0,1.038,0.007
10/07/2023,08:38:47,0.461,1.0,1.046,0.008
10/07/2023,08:39:46,0.464,1.0,1.054,0.008
10/07/2023,08:40:46,0.462,1.0,1.061,0.007
10/07/2023,08:41:47,0.474,1.0,1.069,0.008
10/07/2023,08:42:46,0.489,1.0,1.077,0.008
10/07/2023,08:43:46,0.503,1.0,1.086,0.009
10/07/2023,08:44:46,0.503,1.0,1.094,0.008
10/07/2023,08:45:47,0.504,1.0,1.102,0.008
10/07/2023,08:46:47,0.504,1.0,1.111,0.009
10/07/2023,08:47:46,0.492,1.0,1.119,0.008
10/07/2023,08:48:47,0.458,1.0,1.127,0.008
10/07/2023,08:49:45,0.429,1.0,1.134,0.007
10/07/2023,08:50:46,0.429,1.0,1.141,0.007
10/07/2023,08:51:47,0.478,1.0,1.149,0.008
10/07/2023,08:52:46,0.495,1.0,1.157,0.008
10/07/2023,08:53:47,0.471,1.0,1.165,0.008
10/07/2023,08:54:47,0.421,1.0,1.173,0.008
10/07/2023,08:55:46,0.433,1.0,1.18,0.007
10/07/2023,08:56:46,0.472,1.0,1.187,0.007
10/07/2023,08:57:46,0.475,1.0,1.195,0.008
10/07/2023,08:58:47,0.454,1.0,1.203,0.008
10/07/2023,08:59:46,0.455,1.0,1.21,0.007
10/07/2023,09:00:47,0.461,1.0,1.218,0.008
10/07/2023,09:01:46,0.502,1.0,1.226,0.008
10/07/2023,09:02:46,0.547,1.0,1.235,0.009
10/07/2023,09:03:46,0.572,1.0,1.244,0.009
10/07/2023,09:04:47,0.582,1.0,1.254,0.01
10/07/2023,09:05:46,0.584,1.0,1.264,0.01
10/07/2023,09:06:46,0.590,1.0,1.273,0.009
10/07/2023,09:07:46,0.598,1.0,1.283,0.01
10/07/2023,09:08:47,0.607,1.0,1.293,0.01
10/07/2023,09:09:46,0.612,1.0,1.304,0.011
10/07/2023,09:10:47,0.615,1.0,1.314,0.01
10/07/2023,09:11:46,0.617,1.0,1.324,0.01
10/07/2023,09:12:46,0.606,1.0,1.334,0.01
10/07/2023,09:13:47,0.596,1.0,1.344,0.01
10/07/2023,09:14:47,0.601,1.0,1.354,0.01
10/07/2023,09:15:47,0.622,1.0,1.364,0.01
10/07/2023,09:16:46,0.646,1.0,1.375,0.011
10/07/2023,09:17:46,0.666,2.0,1.386,0.011
10/07/2023,09:18:47,0.677,2.0,1.397,0.011
10/07/2023,09:19:46,0.681,2.0,1.408,0.011
10/07/2023,09:20:46,0.707,2.0,1.42,0.012
10/07/2023,09:21:46,0.756,2.0,1.432,0.012
10/07/2023,09:22:46,0.704,2.0,1.444,0.012
10/07/2023,09:23:46,0.656,2.0,1.456,0.012
10/07/2023,09:24:46,0.629,1.0,1.466,0.01
10/07/2023,09:25:46,0.608,1.0,1.477,0.011
10/07/2023,09:26:47,0.624,1.0,1.487,0.01
10/07/2023,09:27:46,0.658,2.0,1.498,0.011
10/07/2023,09:28:46,0.681,2.0,1.509,0.011
10/07/2023,09:29:46,0.697,2.0,1.521,0.012
10/07/2023,09:30:47,0.726,2.0,1.532,0.011
10/07/2023,09:31:46,0.755,2.0,1.545,0.013
10/07/2023,09:32:46,0.756,2.0,1.557,0.012
10/07/2023,09:33:46,0.774,2.0,1.57,0.013
10/07/2023,09:34:46,0.820,2.0,1.583,0.013
10/07/2023,09:35:47,0.965,2.0,1.598,0.015
10/07/2023,09:36:46,0.921,2.0,1.613,0.015
10/07/2023,09:37:46,0.971,2.0,1.629,0.016
10/07/2023,09:38:46,1.029,2.0,1.646,0.017
10/07/2023,09:39:47,0.979,2.0,1.663,0.017
10/07/2023,09:40:46,0.980,2.0,1.679,0.016
10/07/2023,09:41:46,1.105,3.0,1.696,0.017
10/07/2023,09:42:47,1.134,3.0,1.715,0.019
10/07/2023,09:43:47,1.113,3.0,1.733,0.018
10/07/2023,09:44:46,1.249,3.0,1.753,0.02
10/07/2023,09:45:46,1.139,3.0,1.772,0.019
10/07/2023,09:46:46,1.087,2.0,1.792,0.02
10/07/2023,09:47:46,1.177,3.0,1.811,0.019
10/07/2023,09:48:47,1.903,4.0,1.833,0.022
10/07/2023,09:49:46,1.634,4.0,1.861,0.028
10/07/2023,09:50:47,1.467,3.0,1.886,0.025
10/07/2023,09:51:46,1.390,3.0,1.909,0.023
10/07/2023,09:52:46,1.881,4.0,1.935,0.026
10/07/2023,09:53:46,1.713,4.0,1.966,0.031
10/07/2023,09:54:46,1.880,4.0,1.998,0.032
10/07/2023,09:55:46,1.896,4.0,2.028,0.03